Change the Weather History Date:

Monday, November 26, 2012

  Actual Average Record
Temperature  
Mean Temperature 22 °F -  
Max Temperature 32 °F 44 °F 66 °F (1965)
Min Temperature 12 °F 27 °F -8 °F (1977)
Degree Days  
Heating Degree Days 43    
Moisture  
Dew Point 16 °F    
Average Humidity 69    
Maximum Humidity 86    
Minimum Humidity 51    
Precipitation  
Precipitation 0.00 in - - ()
Sea Level Pressure  
Sea Level Pressure 30.30 in    
Wind  
Wind Speed 7 mph (NNW)    
Max Wind Speed 16 mph    
Max Gust Speed 16 mph    
Visibility 10 miles    
Events      
Averages and records for this station are not official NWS values.
T = Trace of Precipitation, MM = Missing Value Source: NWS Daily Summary

Daily Weather History Graph

Daily Weather History Graph

Search for Another Location

Airport or City:

Trip Planner

Search our weather history database for the weather conditions in past years. The results will help you decide how hot, cold, wet, or windy it might be!

Date:

Astronomy

Nov. 26, 2012 Rise Set
Actual Time 7:04 AM CST 4:32 PM CST
Civil Twilight 6:33 AM CST 5:03 PM CST
Nautical Twilight 5:59 AM CST 5:38 PM CST
Astronomical Twilight 5:25 AM CST 6:11 PM CST
Moon 3:26 PM CST (11/26) 5:13 AM CST (11/26)
Length of Visible Light 10h 30m
Length of Day
9h 28m
Waxing Gibbous, 97% of the Moon is Illuminated
Nov 26
Waxing Gibbous
Nov 28
Full
Dec 6
Last Quarter
Dec 13
New
Dec 19
First Quarter

Hourly Weather History & Observations

Time (CST) Temp. Windchill Dew Point Humidity Pressure Visibility Wind Dir Wind Speed Gust Speed Precip Events Conditions
12:15 AM 28.4 °F 21.2 °F 21.2 °F 74% 30.14 in 10.0 mi North 6.9 mph - N/A   Clear
12:35 AM 26.6 °F 20.0 °F 21.2 °F 80% 30.14 in 10.0 mi North 5.8 mph - N/A   Clear
12:55 AM 26.6 °F 19.1 °F 19.4 °F 74% 30.15 in 10.0 mi North 6.9 mph - N/A   Clear
1:15 AM 26.6 °F 19.1 °F 19.4 °F 74% 30.15 in 10.0 mi North 6.9 mph - N/A   Scattered Clouds
1:35 AM 24.8 °F 16.9 °F 19.4 °F 80% 30.16 in 10.0 mi North 6.9 mph - N/A   Partly Cloudy
1:55 AM 24.8 °F 16.1 °F 19.4 °F 80% 30.17 in 10.0 mi North 8.1 mph - N/A   Scattered Clouds
2:15 AM 24.8 °F 15.3 °F 19.4 °F 80% 30.18 in 10.0 mi North 9.2 mph - N/A   Mostly Cloudy
2:35 AM 24.8 °F 17.9 °F 19.4 °F 80% 30.19 in 10.0 mi North 5.8 mph - N/A   Partly Cloudy
2:55 AM 23.0 °F 14.7 °F 17.6 °F 80% 30.19 in 10.0 mi North 6.9 mph - N/A   Clear
3:15 AM 24.8 °F 16.9 °F 19.4 °F 80% 30.19 in 10.0 mi North 6.9 mph - N/A   Mostly Cloudy
3:35 AM 24.8 °F 16.9 °F 17.6 °F 74% 30.20 in 10.0 mi North 6.9 mph - N/A   Overcast
3:55 AM 24.8 °F 16.9 °F 19.4 °F 80% 30.21 in 10.0 mi NNW 6.9 mph - N/A   Overcast
4:15 AM 24.8 °F 19.1 °F 19.4 °F 80% 30.21 in 10.0 mi NNW 4.6 mph - N/A   Mostly Cloudy
4:55 AM 26.6 °F 21.2 °F 19.4 °F 74% 30.21 in 10.0 mi NNW 4.6 mph - N/A   Mostly Cloudy
5:15 AM 24.8 °F 17.9 °F 17.6 °F 74% 30.22 in 10.0 mi NW 5.8 mph - N/A   Partly Cloudy
5:35 AM 23.0 °F 15.8 °F 17.6 °F 80% 30.22 in 10.0 mi NNW 5.8 mph - N/A   Partly Cloudy
5:55 AM 24.8 °F 20.5 °F 19.4 °F 80% 30.23 in 10.0 mi NNW 3.5 mph - N/A   Mostly Cloudy
6:15 AM 24.8 °F - 19.4 °F 80% 30.23 in 10.0 mi Calm Calm - N/A   Overcast
6:35 AM 24.8 °F 20.5 °F 21.2 °F 86% 30.24 in 10.0 mi NW 3.5 mph - N/A   Overcast
6:55 AM 24.8 °F 19.1 °F 19.4 °F 80% 30.24 in 10.0 mi NW 4.6 mph - N/A   Scattered Clouds
7:15 AM 24.8 °F 20.5 °F 19.4 °F 80% 30.25 in 10.0 mi WNW 3.5 mph - N/A   Clear
7:35 AM 24.8 °F 20.5 °F 19.4 °F 80% 30.25 in 10.0 mi WNW 3.5 mph - N/A   Clear
7:55 AM 24.8 °F - 21.2 °F 86% 30.27 in 9.0 mi Calm Calm - N/A   Clear
8:15 AM 26.6 °F - 21.2 °F 80% 30.26 in 10.0 mi Calm Calm - N/A   Scattered Clouds
8:35 AM 28.4 °F 23.3 °F 21.2 °F 74% 30.27 in 10.0 mi WNW 4.6 mph - N/A   Scattered Clouds
8:55 AM 28.4 °F 20.4 °F 21.2 °F 74% 30.28 in 10.0 mi NW 8.1 mph - N/A   Clear
9:15 AM 28.4 °F 18.5 °F 21.2 °F 74% 30.28 in 10.0 mi NW 11.5 mph - N/A   Clear
9:35 AM 28.4 °F 19.1 °F 19.4 °F 69% 30.29 in 10.0 mi NNW 10.4 mph - N/A   Clear
9:55 AM 30.2 °F 21.9 °F 17.6 °F 60% 30.30 in 10.0 mi NNW 9.2 mph - N/A   Clear
10:15 AM 30.2 °F 18.9 °F 17.6 °F 60% 30.32 in 10.0 mi NW 16.1 mph - N/A   Clear
10:35 AM 30.2 °F 21.9 °F 17.6 °F 60% 30.31 in 10.0 mi NNW 9.2 mph - N/A   Clear
10:55 AM 30.2 °F 21.3 °F 15.8 °F 55% 30.31 in 10.0 mi NW 10.4 mph - N/A   Clear
11:15 AM 30.2 °F 20.2 °F 15.8 °F 55% 30.31 in 10.0 mi NW 12.7 mph - N/A   Clear
11:35 AM 30.2 °F 19.8 °F 14.0 °F 51% 30.31 in 10.0 mi NW 13.8 mph - N/A   Clear
11:55 AM 30.2 °F 20.2 °F 14.0 °F 51% 30.31 in 10.0 mi NW 12.7 mph - N/A   Clear
12:15 PM 30.2 °F 21.3 °F 14.0 °F 51% 30.31 in 10.0 mi NNW 10.4 mph - N/A   Clear
12:35 PM 30.2 °F 21.9 °F 14.0 °F 51% 30.31 in 10.0 mi NNW 9.2 mph - N/A   Clear
12:55 PM 30.2 °F 21.9 °F 15.8 °F 55% 30.32 in 10.0 mi NNW 9.2 mph - N/A   Clear
1:15 PM 30.2 °F 21.9 °F 15.8 °F 55% 30.31 in 10.0 mi NNW 9.2 mph - N/A   Partly Cloudy
1:35 PM 32.0 °F 24.2 °F 15.8 °F 51% 30.32 in 10.0 mi North 9.2 mph - N/A   Scattered Clouds
1:55 PM 32.0 °F 23.6 °F 17.6 °F 55% 30.31 in 10.0 mi North 10.4 mph - N/A   Mostly Cloudy
2:15 PM 32.0 °F 24.8 °F 17.6 °F 55% 30.30 in 10.0 mi NNE 8.1 mph - N/A   Mostly Cloudy
2:35 PM 32.0 °F 24.2 °F 17.6 °F 55% 30.31 in 10.0 mi North 9.2 mph - N/A   Scattered Clouds
2:55 PM 32.0 °F 25.6 °F 17.6 °F 55% 30.31 in 10.0 mi North 6.9 mph - N/A   Mostly Cloudy
3:15 PM 32.0 °F 23.0 °F 17.6 °F 55% 30.32 in 10.0 mi NNW 11.5 mph - N/A   Mostly Cloudy
3:35 PM 32.0 °F 23.0 °F 15.8 °F 51% 30.33 in 10.0 mi NNW 11.5 mph 16.1 mph N/A   Scattered Clouds
3:55 PM 30.2 °F 20.8 °F 15.8 °F 55% 30.33 in 10.0 mi NNW 11.5 mph - N/A   Clear
4:15 PM 30.2 °F 21.9 °F 15.8 °F 55% 30.33 in 10.0 mi NNW 9.2 mph - N/A   Clear
4:35 PM 30.2 °F 21.9 °F 15.8 °F 55% 30.34 in 10.0 mi NNW 9.2 mph - N/A   Mostly Cloudy
4:55 PM 28.4 °F 21.2 °F 15.8 °F 59% 30.35 in 10.0 mi NW 6.9 mph - N/A   Scattered Clouds
5:15 PM 26.6 °F 19.1 °F 15.8 °F 64% 30.35 in 10.0 mi NW 6.9 mph - N/A   Clear
5:35 PM 24.8 °F 16.1 °F 15.8 °F 69% 30.35 in 10.0 mi NW 8.1 mph - N/A   Clear
5:55 PM 24.8 °F 16.1 °F 15.8 °F 69% 30.36 in 10.0 mi NW 8.1 mph - N/A   Clear
6:15 PM 24.8 °F 15.3 °F 15.8 °F 69% 30.37 in 10.0 mi NNW 9.2 mph - N/A   Clear
6:35 PM 24.8 °F 16.1 °F 14.0 °F 64% 30.38 in 10.0 mi NW 8.1 mph - N/A   Clear
6:55 PM 23.0 °F 13.9 °F 14.0 °F 68% 30.37 in 10.0 mi NNW 8.1 mph - N/A   Clear
7:15 PM 21.2 °F 10.9 °F 12.2 °F 68% 30.38 in 10.0 mi NNW 9.2 mph - N/A   Clear
7:35 PM 21.2 °F 10.9 °F 12.2 °F 68% 30.39 in 10.0 mi NNW 9.2 mph - N/A   Clear
7:55 PM 19.4 °F 9.5 °F 12.2 °F 74% 30.40 in 10.0 mi NNW 8.1 mph - N/A   Clear
8:15 PM 19.4 °F 9.5 °F 12.2 °F 74% 30.40 in 10.0 mi NNW 8.1 mph - N/A   Clear
8:35 PM 17.6 °F 8.2 °F 10.4 °F 73% 30.41 in 10.0 mi North 6.9 mph - N/A   Clear
8:55 PM 17.6 °F 9.3 °F 10.4 °F 73% 30.41 in 10.0 mi NNW 5.8 mph - N/A   Clear
9:15 PM 15.8 °F 6.1 °F 8.6 °F 73% 30.41 in 10.0 mi NNW 6.9 mph - N/A   Clear
9:35 PM 15.8 °F 8.6 °F 8.6 °F 73% 30.42 in 10.0 mi North 4.6 mph - N/A   Clear
9:55 PM 15.8 °F - 8.6 °F 73% 30.42 in 10.0 mi Calm Calm - N/A   Clear
10:15 PM 15.8 °F 7.2 °F 10.4 °F 79% 30.42 in 10.0 mi NNW 5.8 mph - N/A   Clear
10:55 PM 14.0 °F 5.1 °F 8.6 °F 79% 30.43 in 10.0 mi NNW 5.8 mph - N/A   Clear
11:15 PM 14.0 °F 3.9 °F 8.6 °F 79% 30.42 in 10.0 mi NNW 6.9 mph - N/A   Clear
11:35 PM 12.2 °F 4.3 °F 6.8 °F 79% 30.42 in 10.0 mi NNW 4.6 mph - N/A   Clear
11:55 PM 14.0 °F - 8.6 °F 79% 30.42 in 10.0 mi Calm Calm - N/A   Clear